Hotaru Tanaka

Olheiro-Chefe - Avispa Fukuoka
3 Abr 2027
Sábado
Processo

Personalidade

Adaptabilidade (16) Ambição (16) Controvérsia (14) Lealdade (18) Pressão (8) Profissionalismo (4) Espírito Esportivo (14) Temperamento (16)

Perfil

Estilo de Treinamento Democrático
Licença Continental C
Determinação 8
Gestão de Pessoas 10
Motivação 7
Disciplina 10
Satisfação no Trabalho
68%
Fadiga
0%
Função Olheiro-Chefe
Salário 30.3K p/s
Contrato 14.03.2030

Desempenho

Comportamento Bom
Eficácia do Treinamento
24%
Desenvolvimento do Jogador
45%
Prevenção de Lesões
50%
Implementação Tática
30%

Eventos Recentes

Participou de uma reunião de recrutamento agora
Participou de uma reunião de recrutamento agora
Participou de uma reunião de recrutamento agora
Participou de uma reunião de recrutamento 7d atrás
Participou de uma reunião de recrutamento 7d atrás
Participou de uma reunião de recrutamento 7d atrás
Participou de uma reunião de recrutamento 7d atrás
Participou de uma reunião de recrutamento 7d atrás

Monitorando agora

94
Jogador Clube Status Habilidade Confiança Observado Última observação Último voto
Renato Augusto Ventforet Kofu Perdido 108 / 91 76% 1 15.02.2027 Aprovar
Kyreece Lisbie Colchester United Ativo 116 / 126 40% 2 09.02.2027 -
Max Conway Bolton Wanderers Ativo 124 / 131 40% 1 09.02.2027 -
Cian Ashford Cardiff City Ativo 110 / 134 40% 1 09.02.2027 -
Ciprian Coman Pandurii Perdido 114 / 125 66% 1 05.01.2027 -
Razvan Puscas Astra Perdido 115 / 115 66% 1 05.01.2027 Aprovar
George Puşcaş Dinamo Bucharest Rejeitado 120 / 120 66% 1 05.01.2027 Rejeitar
Taher Mohamed Al Ahly Perdido 119 / 119 67% 1 05.01.2027 Aprovar
Ibrahim Tarek Masr El Makasa Ativo 121 / 108 40% 6 04.01.2027 -
Mohamed Ali Ben Romdhane Al Ahly Ativo 122 / 135 40% 1 04.01.2027 -
Dale Taylor Blackpool Ativo 113 / 108 40% 1 04.01.2027 -
Fiete Arp OB Ativo 131 / 119 40% 3 03.01.2027 Observar
Kyle John Port Vale Ativo 99 / 123 40% 1 03.01.2027 -
Christian Saydee Wigan Athletic Ativo 119 / 123 40% 2 02.01.2027 -
Jordhy Thompson Orenburg Ativo 107 / 110 40% 1 02.01.2027 -
Juan Carlos Pineda Beroe Ativo 112 / 99 40% 1 02.01.2027 -
Ali Soliman Masr El Makasa Ativo 122 / 110 40% 5 01.01.2027 Observar
Tomás O'Connor Gimnasia y Esgrima Ativo 129 / 122 40% 2 01.01.2027 -
Ethan Williams Peterborough United Ativo 112 / 116 40% 3 01.01.2027 -
Reyes Cleary Barnsley Ativo 121 / 115 40% 3 31.12.2026 -
Marvin Kaleta Rotherham United Ativo 112 / 113 40% 1 31.12.2026 -
Filip Szymczak Zaglebie Ativo 115 / 109 40% 3 29.12.2026 -
Vitalii Dakhnovskyi Bukovyna Ativo 110 / 116 40% 1 29.12.2026 -
Alejo Dramisino Honved Ativo 114 / 120 40% 2 28.12.2026 -
Marko Farji Venezia Ativo 119 / 119 40% 1 28.12.2026 -
Oleksandr Nazarenko Polissia Ativo 128 / 126 40% 1 28.12.2026 Mais informações
Zak Swanson Doncaster Rovers Ativo 119 / 124 40% 1 27.12.2026 -
Xavier Simons Bolton Wanderers Ativo 128 / 128 40% 1 27.12.2026 -
Patrik Wålemark Lech Ativo 122 / 120 40% 3 26.12.2026 -
Suleiman Camara Slovan Bratislava Ativo 119 / 123 40% 3 26.12.2026 -
Robert Petkovic Zadar Ativo 127 / 132 40% 4 25.12.2026 -
Juan Pablo Gallego Fehervar Ativo 108 / 99 40% 1 25.12.2026 -
Milán Tóth Vasas Ativo 102 / 104 40% 1 24.12.2026 -
Thomas Carrique Andorra Ativo 114 / 114 40% 1 24.12.2026 -
Kristian Arnstad AGF Ativo 124 / 130 40% 1 24.12.2026 -
Ten Miyagi Molde Ativo 124 / 131 40% 4 23.12.2026 -
Robert FC Copenhagen Ativo 137 / 143 40% 2 23.12.2026 Mais informações
Matheus Davó Maccabi Netanya Ativo 120 / 118 40% 1 23.12.2026 -
Angelo Gattermayer Wolfsberger AC Ativo 117 / 105 40% 2 22.12.2026 -
Ben Wiles Milton Keynes Dons Ativo 106 / 103 40% 1 20.12.2026 -
Daniel Kyerewaa Reading Ativo 111 / 128 40% 1 20.12.2026 -
Archie Collins Peterborough United Ativo 122 / 106 40% 1 20.12.2026 -
Leandro Andrade Polissia Ativo 136 / 127 40% 2 19.12.2026 -
Paddy Lane Reading Ativo 105 / 110 40% 2 19.12.2026 -
Tornike Morchiladze HNK Rijeka Ativo 117 / 106 40% 1 19.12.2026 -
Siyanda Ndlovu Hearts of Oak Ativo 115 / 102 40% 1 18.12.2026 -
José Barreto Fehervar Ativo 110 / 121 40% 1 18.12.2026 -
Alex Luna Instituto Ativo 135 / 134 40% 2 15.12.2026 -
Armstrong Oko-Flex Levski Ativo 124 / 128 40% 1 15.12.2026 -
Kein Sato FC Tokyo Ativo 133 / 130 40% 3 13.12.2026 -
Conrad Wallem Valerenga Ativo 119 / 140 40% 1 10.12.2026 -
Phoenix Patterson Stevenage Ativo 117 / 123 40% 1 10.12.2026 -
Emil Ceïde Rosenborg Ativo 134 / 118 40% 3 09.12.2026 -
Malik Mothersille Stockport County Ativo 115 / 111 40% 1 09.12.2026 -
Yeangel Montero Naxxar Lions Ativo 113 / 93 40% 1 09.12.2026 -
Alexander Lyng SonderjyskE Ativo 104 / 123 40% 2 08.12.2026 -
Rahim Ibrahim Slovan Bratislava Ativo 132 / 120 40% 1 08.12.2026 -
Bienvenue Kanakimana Zbrojovka Brno Ativo 110 / 120 40% 2 04.12.2026 -
Agustín Ramírez Inter Ativo 102 / 122 40% 2 04.12.2026 -
Ronaldo Vásquez Sumgayit Ativo 122 / 126 40% 2 03.12.2026 -
Solomon John Mlada Boleslav Ativo 111 / 109 40% 1 03.12.2026 -
Iuri Tavares NK Varazdin Ativo 111 / 118 40% 1 03.12.2026 -
Victor Lind Hammarby Ativo 130 / 128 40% 2 01.12.2026 -
Dylan Levitt Leyton Orient Ativo 110 / 121 40% 2 01.12.2026 -
Akinkunmi Amoo Ismaily Rejeitado 129 / 106 40% 1 29.11.2026 Mais informações
Matthias Seidl Rapid Wien Ativo 129 / 129 40% 2 27.11.2026 -
Armando Dobra Chesterfield Ativo 109 / 91 40% 1 27.11.2026 -
Nathan Moriah-Welsh Mansfield Town Ativo 104 / 101 40% 1 27.11.2026 -
Ştefan Baiaram Universitatea Craiova Ativo 128 / 121 40% 2 26.11.2026 -
Mariano Bracamonte Deportivo Riestra Ativo 112 / 113 40% 1 24.11.2026 -
Pedro Zenit Ativo 131 / 139 40% 1 24.11.2026 -
Declan Frith Peterborough United Ativo 115 / 122 40% 1 22.11.2026 -
Asahi Uenaka Gamba Osaka Ativo 121 / 119 40% 1 21.11.2026 -
Andrei Cordea CFR Cluj Ativo 118 / 113 40% 1 20.11.2026 -
Juan Bezerra Zamalek Perdido 112 / 126 40% 1 17.11.2026 Mais informações
Erison Kawasaki Frontale Ativo 128 / 121 40% 1 13.11.2026 -
Alexander Díaz Deportivo Riestra Ativo 128 / 100 40% 2 12.11.2026 -
Marko Brest Olimpija Ljubljana Ativo 121 / 117 40% 1 12.11.2026 -
Mads Frøkjær Brondby Ativo 112 / 126 40% 1 11.11.2026 -
Alin Fică CFR Cluj Ativo 120 / 127 40% 1 10.11.2026 -
Jeon Jin-Woo Albirex Niigata Ativo 131 / 141 40% 1 09.11.2026 -
Daiju Sasaki Vissel Kobe Ativo 124 / 118 40% 2 08.11.2026 -
Franko Kovačević Ferencvaros Ativo 117 / 113 40% 1 08.11.2026 -
Tojiro Kubo Kashiwa Reysol Ativo 123 / 118 40% 1 08.11.2026 -
Yuta Goke Vissel Kobe Ativo 120 / 122 40% 1 07.11.2026 -
Aljoša Matko Ujpest Rejeitado 122 / 121 40% 1 07.11.2026 Mais informações
Simen Bolkan Nordli Rosenborg Ativo 115 / 125 40% 1 05.11.2026 -
Junior Hernández AIK Ativo 123 / 101 40% 1 03.11.2026 -
Matías Pellegrini Vélez Ativo 110 / 111 40% 1 02.11.2026 -
Runar Norheim FC Nordsjaelland Ativo 124 / 130 40% 1 08.09.2026 -
Yuto Ozeki Kawasaki Frontale Ativo 114 / 113 40% 1 08.09.2026 -
Matthew Litherland Blackburn Rovers Ativo 110 / 116 40% 1 08.09.2026 -
Vegard Erlien Valladolid Ativo 120 / 118 40% 1 01.08.2026 -
Thiago Santana Urawa Reds Ativo 123 / 123 40% 1 01.08.2026 -